STARLINK-11264 [DTC]

Last updated on Tue Oct 01 2024 00:02:04 GMT+0000 (Coordinated Universal Time)

1 60906U 24154D 24274.09264590 .00022840 00000+0 14293-3 0 9998 2 60906 53.1586 203.7135 0001310 90.1376 269.9795 15.76767439 5943
UTC large
Height (km)
Speed (km/s)
/
Latitude / Longitude
Inclination (degrees)
Orbital Period (minutes)
Azimuth
Elevation
Range (km)
Doppler Factor

Next 0 passes for location: London (51.5072 / 0.1276)

Sorry there are no passes over London.